Location: Unspecified
(44.0704°N, 88.6889°W)
Time: 14:47:56
(UTC+02:00)

Transit 2A - Pass Details

Date: 22 June 2019
Orbit: 595 x 964 km, 66.7° (Epoch: 21 July)

Event Time Altitude Azimuth Distance (km) Brightness Sun altitude
Rises 14:25:43 0° 333° (NNW) 3,535 9.3 21.1°
Reaches altitude 10° 14:30:06 10° 2° (N) 2,509 8.9 21.9°
Maximum altitude 14:32:25 12° 25° (NNE) 2,294 9.1 22.3°
Drops below altitude 10° 14:34:39 10° 50° (NE) 2,406 9.8 22.7°
Sets 14:38:38 0° 80° (E) 3,234 10.7 23.4°
